Wetterdaten: Sonntag, 14.07.2013
Datum Zeit Temperatur Luftfeuchte Luftdruck Regen Wind Richtung Richtung Taupunkt Windchill Windben
14.07.2013 00:00 12,4 C 74 % 1024,1 hPa 0,0 l/m 0,0 km/h (0 Bft) O 90 7,9 C 11,9 C 1,8 km/h (1 Bft)
14.07.2013 00:05 12,3 C 74 % 1024,1 hPa 0,0 l/m 0,2 km/h (0 Bft) O 90 7,8 C 11,7 C 0,0 km/h (0 Bft)
14.07.2013 00:10 12,3 C 74 % 1024,1 hPa 0,0 l/m 0,2 km/h (0 Bft) O-SO 112 7,8 C 11,5 C 0,0 km/h (0 Bft)
14.07.2013 00:15 11,9 C 74 % 1024,1 hPa 0,0 l/m 0,0 km/h (0 Bft) O 90 7,4 C 11,3 C 0,0 km/h (0 Bft)
14.07.2013 00:20 11,7 C 75 % 1024,1 hPa 0,0 l/m 0,0 km/h (0 Bft) O 90 7,4 C 11,1 C 0,0 km/h (0 Bft)
14.07.2013 00:25 11,5 C 75 % 1024,1 hPa 0,0 l/m 0,2 km/h (0 Bft) SO 135 7,2 C 10,9 C 2,4 km/h (1 Bft)
14.07.2013 00:30 11,4 C 76 % 1024,1 hPa 0,0 l/m 0,2 km/h (0 Bft) S-SO 157 7,3 C 10,9 C 0,0 km/h (0 Bft)
14.07.2013 00:35 11,5 C 76 % 1024,1 hPa 0,0 l/m 0,2 km/h (0 Bft) S 180 7,4 C 10,9 C 0,0 km/h (0 Bft)
14.07.2013 00:40 11,5 C 76 % 1024,1 hPa 0,0 l/m 0,2 km/h (0 Bft) S-SO 157 7,4 C 10,8 C 0,0 km/h (0 Bft)
14.07.2013 00:45 11,4 C 76 % 1024,1 hPa 0,0 l/m 0,0 km/h (0 Bft) S-SO 157 7,3 C 10,5 C 0,0 km/h (0 Bft)
14.07.2013 00:50 11,2 C 76 % 1024,1 hPa 0,0 l/m 0,0 km/h (0 Bft) SW 225 7,1 C 10,5 C 0,0 km/h (0 Bft)
14.07.2013 00:55 11,1 C 77 % 1024,1 hPa 0,0 l/m 0,0 km/h (0 Bft) S 180 7,2 C 10,3 C 0,0 km/h (0 Bft)
14.07.2013 01:00 11,0 C 77 % 1024,0 hPa 0,0 l/m 0,0 km/h (0 Bft) W-SW 247 7,1 C 10,1 C 0,0 km/h (0 Bft)
14.07.2013 01:05 10,6 C 78 % 1024,0 hPa 0,0 l/m 0,0 km/h (0 Bft) S-SO 157 6,9 C 9,9 C 0,0 km/h (0 Bft)
14.07.2013 01:10 10,5 C 78 % 1024,0 hPa 0,0 l/m 0,0 km/h (0 Bft) SW 225 6,8 C 9,9 C 0,0 km/h (0 Bft)
14.07.2013 01:15 10,6 C 79 % 1024,0 hPa 0,0 l/m 0,0 km/h (0 Bft) S-SO 157 7,1 C 9,7 C 0,0 km/h (0 Bft)
14.07.2013 01:20 10,5 C 79 % 1023,8 hPa 0,0 l/m 0,0 km/h (0 Bft) S-SO 157 7,0 C 9,5 C 0,0 km/h (0 Bft)
14.07.2013 01:25 10,3 C 79 % 1023,8 hPa 0,0 l/m 0,0 km/h (0 Bft) SW 225 6,8 C 9,5 C 0,0 km/h (0 Bft)
14.07.2013 01:30 10,3 C 80 % 1023,8 hPa 0,0 l/m 0,0 km/h (0 Bft) SO 135 7,0 C 9,3 C 0,0 km/h (0 Bft)
14.07.2013 01:35 10,3 C 80 % 1023,8 hPa 0,0 l/m 0,0 km/h (0 Bft) SO 135 7,0 C 9,3 C 0,0 km/h (0 Bft)
14.07.2013 01:40 10,3 C 80 % 1023,8 hPa 0,0 l/m 0,0 km/h (0 Bft) SO 135 7,0 C 9,3 C 0,0 km/h (0 Bft)
14.07.2013 01:45 10,0 C 80 % 1023,8 hPa 0,0 l/m 0,0 km/h (0 Bft) W-SW 247 6,7 C 9,3 C 0,0 km/h (0 Bft)
14.07.2013 01:50 9,9 C 81 % 1023,8 hPa 0,0 l/m 0,0 km/h (0 Bft) S 180 6,8 C 9,2 C 0,0 km/h (0 Bft)
14.07.2013 01:55 9,8 C 81 % 1023,8 hPa 0,0 l/m 0,0 km/h (0 Bft) W-SW 247 6,7 C 9,0 C 0,0 km/h (0 Bft)
14.07.2013 02:00 9,7 C 81 % 1023,6 hPa 0,0 l/m 0,0 km/h (0 Bft) SO 135 6,6 C 8,8 C 0,0 km/h (0 Bft)
14.07.2013 02:05 9,6 C 82 % 1023,6 hPa 0,0 l/m 0,0 km/h (0 Bft) SO 135 6,7 C 8,8 C 0,0 km/h (0 Bft)
14.07.2013 02:10 9,6 C 82 % 1023,6 hPa 0,0 l/m 0,0 km/h (0 Bft) SO 135 6,7 C 8,7 C 0,0 km/h (0 Bft)
14.07.2013 02:15 9,7 C 83 % 1023,6 hPa 0,0 l/m 0,0 km/h (0 Bft) S 180 7,0 C 8,6 C 0,0 km/h (0 Bft)
14.07.2013 02:20 9,6 C 83 % 1023,7 hPa 0,0 l/m 0,0 km/h (0 Bft) S-SO 157 6,9 C 8,7 C 0,0 km/h (0 Bft)
14.07.2013 02:25 9,6 C 83 % 1023,7 hPa 0,0 l/m 0,0 km/h (0 Bft) S-SO 157 6,9 C 8,6 C 0,0 km/h (0 Bft)
14.07.2013 02:30 10,0 C 83 % 1023,7 hPa 0,0 l/m 0,2 km/h (0 Bft) NO 45 7,2 C 8,8 C 0,0 km/h (0 Bft)
14.07.2013 02:35 9,9 C 83 % 1023,7 hPa 0,0 l/m 0,2 km/h (0 Bft) NO 45 7,2 C 8,9 C 0,0 km/h (0 Bft)
14.07.2013 02:40 9,8 C 83 % 1023,8 hPa 0,0 l/m 0,0 km/h (0 Bft) NO 45 7,1 C 8,8 C 0,0 km/h (0 Bft)
14.07.2013 02:45 9,6 C 83 % 1023,8 hPa 0,0 l/m 0,0 km/h (0 Bft) N-NW 337 6,9 C 8,8 C 0,0 km/h (0 Bft)
14.07.2013 02:50 9,4 C 83 % 1023,8 hPa 0,0 l/m 0,0 km/h (0 Bft) N-NW 337 6,7 C 8,7 C 0,0 km/h (0 Bft)
14.07.2013 02:55 9,3 C 84 % 1023,8 hPa 0,0 l/m 0,0 km/h (0 Bft) NO 45 6,7 C 8,6 C 0,0 km/h (0 Bft)
14.07.2013 03:00 9,3 C 84 % 1023,9 hPa 0,0 l/m 0,0 km/h (0 Bft) N-NO 22 6,7 C 8,4 C 0,0 km/h (0 Bft)
14.07.2013 03:05 9,3 C 85 % 1023,9 hPa 0,0 l/m 0,0 km/h (0 Bft) N-NO 22 6,9 C 8,5 C 0,0 km/h (0 Bft)
14.07.2013 03:10 9,1 C 85 % 1023,9 hPa 0,0 l/m 0,0 km/h (0 Bft) N-NO 22 6,7 C 8,6 C 0,0 km/h (0 Bft)
14.07.2013 03:15 8,9 C 85 % 1023,9 hPa 0,0 l/m 0,0 km/h (0 Bft) N-NW 337 6,5 C 8,5 C 0,0 km/h (0 Bft)
14.07.2013 03:20 8,8 C 85 % 1023,8 hPa 0,0 l/m 0,0 km/h (0 Bft) N 360 6,4 C 8,3 C 0,0 km/h (0 Bft)
14.07.2013 03:25 8,7 C 85 % 1023,8 hPa 0,0 l/m 0,0 km/h (0 Bft) NO 45 6,3 C 8,2 C 0,0 km/h (0 Bft)
14.07.2013 03:30 8,7 C 85 % 1023,8 hPa 0,0 l/m 0,0 km/h (0 Bft) NO 45 6,3 C 8,0 C 0,0 km/h (0 Bft)
14.07.2013 03:35 8,7 C 86 % 1023,8 hPa 0,0 l/m 0,0 km/h (0 Bft) N-NO 22 6,5 C 7,9 C 0,0 km/h (0 Bft)
14.07.2013 03:40 8,7 C 86 % 1023,9 hPa 0,0 l/m 0,0 km/h (0 Bft) NO 45 6,5 C 7,9 C 0,0 km/h (0 Bft)
14.07.2013 03:45 8,6 C 86 % 1023,9 hPa 0,0 l/m 0,0 km/h (0 Bft) NO 45 6,4 C 7,9 C 0,0 km/h (0 Bft)
14.07.2013 03:50 8,6 C 86 % 1023,9 hPa 0,0 l/m 0,0 km/h (0 Bft) NO 45 6,4 C 7,9 C 0,0 km/h (0 Bft)
14.07.2013 03:55 8,7 C 86 % 1023,9 hPa 0,0 l/m 0,0 km/h (0 Bft) NO 45 6,5 C 8,2 C 0,0 km/h (0 Bft)
14.07.2013 04:00 8,8 C 86 % 1023,7 hPa 0,0 l/m 0,0 km/h (0 Bft) NO 45 6,6 C 8,2 C 0,0 km/h (0 Bft)
14.07.2013 04:05 8,9 C 86 % 1023,7 hPa 0,0 l/m 0,0 km/h (0 Bft) NO 45 6,7 C 8,0 C 0,0 km/h (0 Bft)
14.07.2013 04:10 8,8 C 86 % 1023,7 hPa 0,0 l/m 0,0 km/h (0 Bft) N-NW 337 6,6 C 7,9 C 0,0 km/h (0 Bft)
14.07.2013 04:15 8,5 C 86 % 1023,7 hPa 0,0 l/m 0,0 km/h (0 Bft) N-NW 337 6,3 C 7,9 C 0,0 km/h (0 Bft)
14.07.2013 04:20 8,5 C 86 % 1023,8 hPa 0,0 l/m 0,0 km/h (0 Bft) NO 45 6,3 C 7,9 C 0,0 km/h (0 Bft)
14.07.2013 04:25 8,4 C 86 % 1023,8 hPa 0,0 l/m 0,0 km/h (0 Bft) NO 45 6,2 C 7,8 C 0,0 km/h (0 Bft)
14.07.2013 04:30 8,6 C 87 % 1023,8 hPa 0,0 l/m 0,0 km/h (0 Bft) N-NW 337 6,6 C 7,9 C 0,0 km/h (0 Bft)
14.07.2013 04:35 8,5 C 87 % 1023,8 hPa 0,0 l/m 0,0 km/h (0 Bft) NO 45 6,5 C 7,9 C 0,0 km/h (0 Bft)
14.07.2013 04:40 8,3 C 87 % 1023,4 hPa 0,0 l/m 0,0 km/h (0 Bft) O-NO 67 6,3 C 7,8 C 0,0 km/h (0 Bft)
14.07.2013 04:45 8,2 C 87 % 1023,4 hPa 0,0 l/m 0,0 km/h (0 Bft) NO 45 6,2 C 7,7 C 0,0 km/h (0 Bft)
14.07.2013 04:50 8,1 C 87 % 1023,4 hPa 0,0 l/m 0,0 km/h (0 Bft) NO 45 6,1 C 7,6 C 0,0 km/h (0 Bft)
14.07.2013 04:55 8,1 C 87 % 1023,4 hPa 0,0 l/m 0,0 km/h (0 Bft) NO 45 6,1 C 7,5 C 0,0 km/h (0 Bft)
14.07.2013 05:00 8,1 C 87 % 1023,4 hPa 0,0 l/m 0,0 km/h (0 Bft) NO 45 6,1 C 7,5 C 0,0 km/h (0 Bft)
14.07.2013 05:05 8,0 C 87 % 1023,4 hPa 0,0 l/m 0,0 km/h (0 Bft) NO 45 6,0 C 7,5 C 0,0 km/h (0 Bft)
14.07.2013 05:10 8,0 C 87 % 1023,4 hPa 0,0 l/m 0,0 km/h (0 Bft) N-NO 22 6,0 C 7,4 C 0,0 km/h (0 Bft)
14.07.2013 05:15 8,0 C 88 % 1023,4 hPa 0,0 l/m 0,0 km/h (0 Bft) N-NO 22 6,1 C 7,4 C 0,0 km/h (0 Bft)
14.07.2013 05:20 8,0 C 88 % 1023,5 hPa 0,0 l/m 0,0 km/h (0 Bft) W-SW 247 6,1 C 7,4 C 0,0 km/h (0 Bft)
14.07.2013 05:25 8,2 C 88 % 1023,5 hPa 0,0 l/m 0,0 km/h (0 Bft) S 180 6,3 C 7,6 C 0,0 km/h (0 Bft)
14.07.2013 05:30 8,2 C 88 % 1023,5 hPa 0,0 l/m 0,0 km/h (0 Bft) S 180 6,3 C 7,6 C 0,0 km/h (0 Bft)
14.07.2013 05:35 8,3 C 88 % 1023,5 hPa 0,0 l/m 0,0 km/h (0 Bft) NO 45 6,4 C 7,6 C 0,0 km/h (0 Bft)
14.07.2013 05:40 8,1 C 88 % 1023,7 hPa 0,0 l/m 0,0 km/h (0 Bft) N-NW 337 6,2 C 7,6 C 0,0 km/h (0 Bft)
14.07.2013 05:45 7,9 C 88 % 1023,7 hPa 0,0 l/m 0,0 km/h (0 Bft) N-NO 22 6,0 C 7,4 C 0,0 km/h (0 Bft)
14.07.2013 05:50 8,0 C 88 % 1023,7 hPa 0,0 l/m 0,0 km/h (0 Bft) O-NO 67 6,1 C 7,4 C 0,0 km/h (0 Bft)
14.07.2013 05:55 8,0 C 88 % 1023,7 hPa 0,0 l/m 0,0 km/h (0 Bft) O-NO 67 6,1 C 7,5 C 0,0 km/h (0 Bft)
14.07.2013 06:00 8,1 C 88 % 1023,9 hPa 0,0 l/m 0,0 km/h (0 Bft) O-NO 67 6,2 C 7,7 C 0,0 km/h (0 Bft)
14.07.2013 06:05 8,1 C 88 % 1023,9 hPa 0,0 l/m 0,0 km/h (0 Bft) NO 45 6,2 C 8,2 C 0,0 km/h (0 Bft)
14.07.2013 06:10 8,4 C 88 % 1023,9 hPa 0,0 l/m 0,0 km/h (0 Bft) N-NO 22 6,5 C 8,6 C 0,0 km/h (0 Bft)
14.07.2013 06:15 9,7 C 88 % 1023,9 hPa 0,0 l/m 0,0 km/h (0 Bft) N-NO 22 7,8 C 9,2 C 0,0 km/h (0 Bft)
14.07.2013 06:20 10,3 C 87 % 1023,8 hPa 0,0 l/m 0,0 km/h (0 Bft) N-NO 22 8,2 C 9,5 C 0,0 km/h (0 Bft)
14.07.2013 06:25 11,0 C 86 % 1023,8 hPa 0,0 l/m 0,0 km/h (0 Bft) N-NO 22 8,7 C 10,1 C 0,0 km/h (0 Bft)
14.07.2013 06:30 11,4 C 85 % 1023,8 hPa 0,0 l/m 0,0 km/h (0 Bft) N 360 9,0 C 10,5 C 0,0 km/h (0 Bft)
14.07.2013 06:35 12,1 C 83 % 1023,8 hPa 0,0 l/m 0,0 km/h (0 Bft) NO 45 9,3 C 11,3 C 0,0 km/h (0 Bft)
14.07.2013 06:40 12,2 C 82 % 1023,7 hPa 0,0 l/m 0,0 km/h (0 Bft) O-NO 67 9,2 C 12,0 C 0,0 km/h (0 Bft)
14.07.2013 06:45 13,0 C 79 % 1023,7 hPa 0,0 l/m 0,0 km/h (0 Bft) N-NO 22 9,4 C 12,7 C 0,0 km/h (0 Bft)
14.07.2013 06:50 13,6 C 77 % 1023,7 hPa 0,0 l/m 0,0 km/h (0 Bft) N-NO 22 9,6 C 13,2 C 0,0 km/h (0 Bft)
14.07.2013 06:55 14,7 C 75 % 1023,7 hPa 0,0 l/m 0,0 km/h (0 Bft) O 90 10,3 C 14,3 C 0,0 km/h (0 Bft)
14.07.2013 07:00 14,7 C 70 % 1023,9 hPa 0,0 l/m 0,0 km/h (0 Bft) N-NO 22 9,3 C 14,7 C 0,0 km/h (0 Bft)
14.07.2013 07:05 15,6 C 69 % 1023,9 hPa 0,0 l/m 0,0 km/h (0 Bft) NO 45 9,9 C 15,4 C 0,0 km/h (0 Bft)
14.07.2013 07:10 16,4 C 69 % 1023,9 hPa 0,0 l/m 0,0 km/h (0 Bft) NO 45 10,7 C 16,0 C 0,0 km/h (0 Bft)
14.07.2013 07:15 17,3 C 66 % 1023,9 hPa 0,0 l/m 0,0 km/h (0 Bft) N-NW 337 10,9 C 17,1 C 0,0 km/h (0 Bft)
14.07.2013 07:20 17,5 C 65 % 1023,8 hPa 0,0 l/m 0,0 km/h (0 Bft) W-NW 292 10,8 C 17,5 C 0,0 km/h (0 Bft)
14.07.2013 07:25 17,8 C 62 % 1023,8 hPa 0,0 l/m 0,0 km/h (0 Bft) W-NW 292 10,4 C 18,4 C 0,0 km/h (0 Bft)
14.07.2013 07:30 18,0 C 61 % 1023,8 hPa 0,0 l/m 0,0 km/h (0 Bft) W-NW 292 10,4 C 18,9 C 0,0 km/h (0 Bft)
14.07.2013 07:35 18,5 C 60 % 1023,8 hPa 0,0 l/m 0,0 km/h (0 Bft) N-NW 337 10,6 C 19,5 C 0,0 km/h (0 Bft)
14.07.2013 07:40 19,3 C 59 % 1023,8 hPa 0,0 l/m 0,0 km/h (0 Bft) N 360 11,1 C 20,0 C 0,0 km/h (0 Bft)
14.07.2013 07:45 18,9 C 59 % 1023,8 hPa 0,0 l/m 0,0 km/h (0 Bft) N 360 10,7 C 20,3 C 0,0 km/h (0 Bft)
14.07.2013 07:50 19,2 C 59 % 1023,8 hPa 0,0 l/m 0,0 km/h (0 Bft) N-NO 22 11,0 C 20,3 C 0,0 km/h (0 Bft)
14.07.2013 07:55 19,8 C 58 % 1023,8 hPa 0,0 l/m 0,0 km/h (0 Bft) N 360 11,3 C 20,8 C 0,0 km/h (0 Bft)
14.07.2013 08:00 20,3 C 57 % 1024,2 hPa 0,0 l/m 0,0 km/h (0 Bft) N-NO 22 11,5 C 21,2 C 0,0 km/h (0 Bft)
14.07.2013 08:05 21,0 C 57 % 1024,2 hPa 0,0 l/m 0,0 km/h (0 Bft) N-NO 22 12,1 C 21,8 C 0,0 km/h (0 Bft)
14.07.2013 08:10 21,3 C 55 % 1024,2 hPa 0,0 l/m 0,0 km/h (0 Bft) N-NO 22 11,9 C 22,4 C 0,0 km/h (0 Bft)
14.07.2013 08:15 21,2 C 55 % 1024,2 hPa 0,0 l/m 0,0 km/h (0 Bft) N-NW 337 11,8 C 22,8 C 0,0 km/h (0 Bft)
14.07.2013 08:20 21,3 C 56 % 1024,1 hPa 0,0 l/m 0,0 km/h (0 Bft) W-NW 292 12,2 C 23,1 C 0,0 km/h (0 Bft)
14.07.2013 08:25 21,2 C 55 % 1024,1 hPa 0,0 l/m 0,3 km/h (0 Bft) N-NW 337 11,8 C 22,9 C 0,0 km/h (0 Bft)
14.07.2013 08:30 22,9 C 55 % 1024,1 hPa 0,0 l/m 0,3 km/h (0 Bft) N 360 13,4 C 23,2 C 0,0 km/h (0 Bft)
14.07.2013 08:35 22,9 C 53 % 1024,1 hPa 0,0 l/m 0,0 km/h (0 Bft) NO 45 12,8 C 24,1 C 0,0 km/h (0 Bft)
14.07.2013 08:40 23,1 C 50 % 1024,4 hPa 0,0 l/m 0,0 km/h (0 Bft) N-NW 337 12,1 C 24,5 C 0,0 km/h (0 Bft)
14.07.2013 08:45 23,1 C 50 % 1024,4 hPa 0,0 l/m 0,0 km/h (0 Bft) N-NO 22 12,1 C 24,9 C 0,0 km/h (0 Bft)
14.07.2013 08:50 22,8 C 49 % 1024,4 hPa 0,0 l/m 0,0 km/h (0 Bft) N 360 11,5 C 25,2 C 0,0 km/h (0 Bft)
14.07.2013 08:55 23,5 C 47 % 1024,4 hPa 0,0 l/m 0,2 km/h (0 Bft) NO 45 11,5 C 25,7 C 0,0 km/h (0 Bft)
14.07.2013 09:00 23,3 C 47 % 1024,4 hPa 0,0 l/m 0,3 km/h (0 Bft) W-NW 292 11,3 C 25,7 C 1,6 km/h (1 Bft)
14.07.2013 09:05 23,8 C 48 % 1024,4 hPa 0,0 l/m 0,8 km/h (0 Bft) NW 315 12,1 C 25,5 C 0,0 km/h (0 Bft)
14.07.2013 09:10 24,7 C 46 % 1024,4 hPa 0,0 l/m 1,1 km/h (1 Bft) W-SW 247 12,3 C 25,5 C 2,1 km/h (1 Bft)
14.07.2013 09:15 25,0 C 42 % 1024,4 hPa 0,0 l/m 1,0 km/h (0 Bft) W-NW 292 11,2 C 25,5 C 3,2 km/h (1 Bft)
14.07.2013 09:20 24,5 C 42 % 1024,9 hPa 0,0 l/m 1,0 km/h (0 Bft) S 180 10,7 C 26,0 C 3,2 km/h (1 Bft)
14.07.2013 09:25 25,3 C 43 % 1024,9 hPa 0,0 l/m 1,4 km/h (1 Bft) W-NW 292 11,8 C 25,8 C 3,9 km/h (1 Bft)
14.07.2013 09:30 25,8 C 42 % 1024,9 hPa 0,0 l/m 1,8 km/h (1 Bft) S 180 11,9 C 25,8 C 3,1 km/h (1 Bft)
14.07.2013 09:35 25,4 C 42 % 1024,9 hPa 0,0 l/m 1,6 km/h (1 Bft) W-NW 292 11,5 C 26,1 C 2,4 km/h (1 Bft)
14.07.2013 09:40 24,5 C 40 % 1025,3 hPa 0,0 l/m 1,3 km/h (1 Bft) SO 135 10,0 C 26,5 C 0,0 km/h (0 Bft)
14.07.2013 09:45 25,6 C 39 % 1025,3 hPa 0,0 l/m 1,3 km/h (1 Bft) S 180 10,6 C 26,8 C 3,4 km/h (1 Bft)
14.07.2013 09:50 25,7 C 40 % 1025,3 hPa 0,0 l/m 1,6 km/h (1 Bft) S 180 11,1 C 26,7 C 2,9 km/h (1 Bft)
14.07.2013 09:55 24,9 C 41 % 1025,3 hPa 0,0 l/m 1,4 km/h (1 Bft) O 90 10,7 C 27,1 C 1,6 km/h (1 Bft)
14.07.2013 10:00 25,3 C 42 % 1025,5 hPa 0,0 l/m 0,8 km/h (0 Bft) S 180 11,5 C 27,4 C 1,6 km/h (1 Bft)
14.07.2013 10:05 25,8 C 37 % 1025,5 hPa 0,0 l/m 1,1 km/h (1 Bft) S 180 10,0 C 27,5 C 5,0 km/h (1 Bft)
14.07.2013 10:10 25,9 C 38 % 1025,5 hPa 0,0 l/m 1,1 km/h (1 Bft) W 270 10,5 C 27,7 C 3,4 km/h (1 Bft)
14.07.2013 10:15 25,1 C 38 % 1025,5 hPa 0,0 l/m 1,4 km/h (1 Bft) W-NW 292 9,8 C 27,3 C 5,3 km/h (1 Bft)
14.07.2013 10:20 24,2 C 38 % 1025,4 hPa 0,0 l/m 1,9 km/h (1 Bft) NO 45 9,0 C 27,1 C 2,6 km/h (1 Bft)
14.07.2013 10:25 24,7 C 39 % 1025,4 hPa 0,0 l/m 1,8 km/h (1 Bft) S-SW 202 9,8 C 27,0 C 0,0 km/h (0 Bft)
14.07.2013 10:30 24,9 C 35 % 1025,4 hPa 0,0 l/m 2,4 km/h (1 Bft) N-NW 337 8,4 C 27,0 C 3,2 km/h (1 Bft)
14.07.2013 10:35 24,9 C 34 % 1025,4 hPa 0,0 l/m 1,9 km/h (1 Bft) N-NW 337 7,9 C 27,4 C 5,5 km/h (1 Bft)
14.07.2013 10:40 24,8 C 36 % 1025,5 hPa 0,0 l/m 1,9 km/h (1 Bft) W-SW 247 8,7 C 27,3 C 2,9 km/h (1 Bft)
14.07.2013 10:45 25,3 C 34 % 1025,5 hPa 0,0 l/m 1,9 km/h (1 Bft) O 90 8,3 C 27,4 C 0,0 km/h (0 Bft)
14.07.2013 10:50 25,8 C 35 % 1025,5 hPa 0,0 l/m 1,6 km/h (1 Bft) W-NW 292 9,2 C 27,8 C 4,5 km/h (1 Bft)
14.07.2013 10:55 25,3 C 32 % 1025,5 hPa 0,0 l/m 2,1 km/h (1 Bft) N 360 7,4 C 27,5 C 7,2 km/h (2 Bft)
14.07.2013 11:00 25,0 C 33 % 1025,3 hPa 0,0 l/m 2,4 km/h (1 Bft) N-NO 22 7,6 C 27,3 C 3,2 km/h (1 Bft)
14.07.2013 11:05 25,5 C 34 % 1025,3 hPa 0,0 l/m 2,3 km/h (1 Bft) N-NO 22 8,5 C 27,4 C 0,0 km/h (0 Bft)
14.07.2013 11:10 25,2 C 33 % 1025,3 hPa 0,0 l/m 2,6 km/h (1 Bft) SO 135 7,8 C 27,4 C 5,3 km/h (1 Bft)
14.07.2013 11:15 24,9 C 35 % 1025,3 hPa 0,0 l/m 2,7 km/h (1 Bft) S 180 8,4 C 27,4 C 0,0 km/h (0 Bft)
14.07.2013 11:20 26,5 C 34 % 1025,5 hPa 0,0 l/m 2,1 km/h (1 Bft) W-SW 247 9,3 C 27,8 C 2,1 km/h (1 Bft)
14.07.2013 11:25 26,6 C 35 % 1025,5 hPa 0,0 l/m 1,1 km/h (1 Bft) O 90 9,9 C 28,3 C 3,4 km/h (1 Bft)
14.07.2013 11:30 25,2 C 34 % 1025,5 hPa 0,0 l/m 2,3 km/h (1 Bft) W 270 8,2 C 27,8 C 2,6 km/h (1 Bft)
14.07.2013 11:35 25,8 C 33 % 1025,5 hPa 0,0 l/m 3,5 km/h (1 Bft) SW 225 8,3 C 27,0 C 8,4 km/h (2 Bft)
14.07.2013 11:40 26,4 C 33 % 1025,4 hPa 0,0 l/m 2,9 km/h (1 Bft) W-SW 247 8,8 C 27,2 C 1,9 km/h (1 Bft)
14.07.2013 11:45 25,1 C 33 % 1025,4 hPa 0,0 l/m 3,2 km/h (1 Bft) O-NO 67 7,7 C 26,9 C 8,9 km/h (2 Bft)
14.07.2013 11:50 26,2 C 34 % 1025,4 hPa 0,0 l/m 2,9 km/h (1 Bft) NW 315 9,1 C 27,2 C 3,1 km/h (1 Bft)
14.07.2013 11:55 25,3 C 36 % 1025,4 hPa 0,0 l/m 2,7 km/h (1 Bft) NW 315 9,1 C 27,3 C 3,4 km/h (1 Bft)
14.07.2013 12:00 26,2 C 35 % 1025,3 hPa 0,0 l/m 3,4 km/h (1 Bft) SO 135 9,5 C 27,2 C 2,4 km/h (1 Bft)
14.07.2013 12:05 24,8 C 33 % 1025,3 hPa 0,0 l/m 3,7 km/h (1 Bft) NO 45 7,4 C 27,0 C 7,7 km/h (2 Bft)
14.07.2013 12:10 26,2 C 35 % 1025,3 hPa 0,0 l/m 3,5 km/h (1 Bft) S 180 9,5 C 26,8 C 2,6 km/h (1 Bft)
14.07.2013 12:15 25,5 C 34 % 1025,3 hPa 0,0 l/m 2,7 km/h (1 Bft) N-NW 337 8,5 C 27,5 C 4,2 km/h (1 Bft)
14.07.2013 12:20 25,6 C 35 % 1025,4 hPa 0,0 l/m 2,6 km/h (1 Bft) SO 135 9,0 C 27,3 C 2,6 km/h (1 Bft)
14.07.2013 12:25 24,9 C 36 % 1025,4 hPa 0,0 l/m 2,9 km/h (1 Bft) SO 135 8,8 C 27,4 C 2,6 km/h (1 Bft)
14.07.2013 12:30 25,8 C 36 % 1025,4 hPa 0,0 l/m 2,9 km/h (1 Bft) W 270 9,6 C 27,4 C 5,5 km/h (1 Bft)
14.07.2013 12:35 26,1 C 36 % 1025,4 hPa 0,0 l/m 2,7 km/h (1 Bft) W-SW 247 9,8 C 27,5 C 4,0 km/h (1 Bft)
14.07.2013 12:40 26,3 C 36 % 1025,2 hPa 0,0 l/m 2,9 km/h (1 Bft) W-SW 247 10,0 C 27,5 C 5,5 km/h (1 Bft)
14.07.2013 12:45 26,4 C 35 % 1025,2 hPa 0,0 l/m 4,0 km/h (1 Bft) W-NW 292 9,7 C 27,1 C 4,2 km/h (1 Bft)
14.07.2013 12:50 26,3 C 35 % 1025,2 hPa 0,0 l/m 4,2 km/h (1 Bft) O-SO 112 9,6 C 27,2 C 4,7 km/h (1 Bft)
14.07.2013 12:55 26,3 C 35 % 1025,2 hPa 0,0 l/m 4,2 km/h (1 Bft) S-SO 157 9,6 C 27,1 C 5,3 km/h (1 Bft)
14.07.2013 13:00 25,8 C 34 % 1025,2 hPa 0,0 l/m 4,5 km/h (1 Bft) S-SW 202 8,7 C 26,9 C 5,5 km/h (1 Bft)
14.07.2013 13:05 25,7 C 34 % 1025,2 hPa 0,0 l/m 4,2 km/h (1 Bft) O-SO 112 8,6 C 26,9 C 6,1 km/h (2 Bft)
14.07.2013 13:10 24,5 C 33 % 1025,2 hPa 0,0 l/m 4,2 km/h (1 Bft) N-NW 337 7,2 C 26,9 C 7,9 km/h (2 Bft)
14.07.2013 13:15 25,1 C 36 % 1025,2 hPa 0,0 l/m 4,2 km/h (1 Bft) N-NW 337 9,0 C 26,6 C 9,7 km/h (2 Bft)
14.07.2013 13:20 24,3 C 34 % 1025,2 hPa 0,0 l/m 4,3 km/h (1 Bft) O-NO 67 7,4 C 27,0 C 7,2 km/h (2 Bft)
14.07.2013 13:25 25,2 C 34 % 1025,2 hPa 0,0 l/m 3,1 km/h (1 Bft) SO 135 8,2 C 27,3 C 10,1 km/h (2 Bft)
14.07.2013 13:30 25,3 C 33 % 1025,2 hPa 0,0 l/m 2,6 km/h (1 Bft) N 360 7,9 C 27,8 C 2,3 km/h (1 Bft)
14.07.2013 13:35 26,0 C 36 % 1025,2 hPa 0,0 l/m 1,9 km/h (1 Bft) W-SW 247 9,8 C 28,4 C 3,7 km/h (1 Bft)
14.07.2013 13:40 26,1 C 35 % 1025,2 hPa 0,0 l/m 3,1 km/h (1 Bft) S 180 9,4 C 28,1 C 6,3 km/h (2 Bft)
14.07.2013 13:45 25,8 C 34 % 1025,2 hPa 0,0 l/m 3,7 km/h (1 Bft) O-NO 67 8,7 C 27,6 C 1,6 km/h (1 Bft)
14.07.2013 13:50 26,1 C 33 % 1025,2 hPa 0,0 l/m 2,3 km/h (1 Bft) SW 225 8,6 C 28,1 C 2,4 km/h (1 Bft)
14.07.2013 13:55 26,3 C 34 % 1025,2 hPa 0,0 l/m 2,6 km/h (1 Bft) O-SO 112 9,2 C 28,3 C 6,0 km/h (2 Bft)
14.07.2013 14:00 26,1 C 34 % 1025,4 hPa 0,0 l/m 4,7 km/h (1 Bft) W-NW 292 9,0 C 27,9 C 12,6 km/h (3 Bft)
14.07.2013 14:05 25,1 C 32 % 1025,4 hPa 0,0 l/m 6,8 km/h (2 Bft) S 180 7,2 C 26,6 C 13,8 km/h (3 Bft)
14.07.2013 14:10 25,8 C 34 % 1025,4 hPa 0,0 l/m 6,8 km/h (2 Bft) W-NW 292 8,7 C 26,3 C 7,6 km/h (2 Bft)
14.07.2013 14:15 25,0 C 32 % 1025,4 hPa 0,0 l/m 5,0 km/h (1 Bft) O 90 7,1 C 26,5 C 3,4 km/h (1 Bft)
14.07.2013 14:20 25,9 C 33 % 1025,2 hPa 0,0 l/m 3,9 km/h (1 Bft) W-SW 247 8,4 C 26,6 C 0,0 km/h (0 Bft)
14.07.2013 14:25 26,0 C 33 % 1025,2 hPa 0,0 l/m 3,9 km/h (1 Bft) S-SW 202 8,5 C 27,3 C 6,8 km/h (2 Bft)
14.07.2013 14:30 26,5 C 34 % 1025,2 hPa 0,0 l/m 4,2 km/h (1 Bft) S-SO 157 9,3 C 27,1 C 7,1 km/h (2 Bft)
14.07.2013 14:35 26,4 C 33 % 1025,2 hPa 0,0 l/m 5,0 km/h (1 Bft) S-SO 157 8,8 C 27,3 C 8,9 km/h (2 Bft)
14.07.2013 14:40 26,6 C 33 % 1025,1 hPa 0,0 l/m 5,0 km/h (1 Bft) S-SW 202 9,0 C 27,3 C 7,4 km/h (2 Bft)
14.07.2013 14:45 26,3 C 34 % 1025,1 hPa 0,0 l/m 5,8 km/h (2 Bft) S-SW 202 9,2 C 27,3 C 8,0 km/h (2 Bft)
14.07.2013 14:50 26,4 C 34 % 1025,1 hPa 0,0 l/m 5,3 km/h (1 Bft) W-NW 292 9,3 C 27,1 C 3,2 km/h (1 Bft)
14.07.2013 14:55 26,1 C 33 % 1025,1 hPa 0,0 l/m 5,0 km/h (1 Bft) N-NO 22 8,6 C 27,1 C 7,6 km/h (2 Bft)
14.07.2013 15:00 25,8 C 33 % 1025,1 hPa 0,0 l/m 4,3 km/h (1 Bft) N-NW 337 8,3 C 27,3 C 5,5 km/h (1 Bft)
14.07.2013 15:05 25,6 C 33 % 1025,1 hPa 0,0 l/m 4,0 km/h (1 Bft) N 360 8,1 C 27,6 C 3,4 km/h (1 Bft)
14.07.2013 15:10 26,3 C 34 % 1025,1 hPa 0,0 l/m 3,9 km/h (1 Bft) W 270 9,2 C 28,0 C 4,8 km/h (1 Bft)
14.07.2013 15:15 25,8 C 35 % 1025,1 hPa 0,0 l/m 5,3 km/h (1 Bft) W-SW 247 9,2 C 27,4 C 14,5 km/h (3 Bft)
14.07.2013 15:20 25,5 C 35 % 1025,2 hPa 0,0 l/m 6,0 km/h (2 Bft) S 180 8,9 C 27,2 C 5,0 km/h (1 Bft)
14.07.2013 15:25 25,1 C 35 % 1025,2 hPa 0,0 l/m 5,1 km/h (1 Bft) N 360 8,6 C 27,3 C 5,3 km/h (1 Bft)
14.07.2013 15:30 25,9 C 36 % 1025,2 hPa 0,0 l/m 4,2 km/h (1 Bft) N-NO 22 9,7 C 27,6 C 3,7 km/h (1 Bft)
14.07.2013 15:35 26,5 C 35 % 1025,2 hPa 0,0 l/m 2,4 km/h (1 Bft) S 180 9,8 C 28,7 C 2,7 km/h (1 Bft)
14.07.2013 15:40 26,6 C 34 % 1025,1 hPa 0,0 l/m 1,8 km/h (1 Bft) W-NW 292 9,4 C 29,5 C 7,7 km/h (2 Bft)
14.07.2013 15:45 26,2 C 36 % 1025,1 hPa 0,0 l/m 3,2 km/h (1 Bft) NW 315 9,9 C 29,0 C 8,4 km/h (2 Bft)
14.07.2013 15:50 26,3 C 35 % 1025,1 hPa 0,0 l/m 4,8 km/h (1 Bft) W 270 9,6 C 28,8 C 9,3 km/h (2 Bft)
14.07.2013 15:55 26,2 C 35 % 1025,1 hPa 0,0 l/m 4,7 km/h (1 Bft) SO 135 9,5 C 28,5 C 5,0 km/h (1 Bft)
14.07.2013 16:00 26,3 C 36 % 1025,1 hPa 0,0 l/m 5,5 km/h (1 Bft) S-SW 202 10,0 C 28,1 C 5,1 km/h (1 Bft)
14.07.2013 16:05 26,0 C 36 % 1025,1 hPa 0,0 l/m 4,8 km/h (1 Bft) W 270 9,8 C 28,3 C 6,3 km/h (2 Bft)
14.07.2013 16:10 25,9 C 36 % 1025,1 hPa 0,0 l/m 4,0 km/h (1 Bft) S-SW 202 9,7 C 28,3 C 4,0 km/h (1 Bft)
14.07.2013 16:15 25,6 C 36 % 1025,1 hPa 0,0 l/m 5,0 km/h (1 Bft) W 270 9,4 C 28,1 C 5,0 km/h (1 Bft)
14.07.2013 16:20 25,2 C 35 % 1024,9 hPa 0,0 l/m 5,0 km/h (1 Bft) W-NW 292 8,6 C 28,0 C 6,6 km/h (2 Bft)
14.07.2013 16:25 24,8 C 37 % 1024,9 hPa 0,0 l/m 3,4 km/h (1 Bft) W-SW 247 9,1 C 28,1 C 0,0 km/h (0 Bft)
14.07.2013 16:30 24,9 C 38 % 1024,9 hPa 0,0 l/m 2,7 km/h (1 Bft) W 270 9,6 C 28,7 C 3,2 km/h (1 Bft)
14.07.2013 16:35 24,8 C 39 % 1024,9 hPa 0,0 l/m 3,4 km/h (1 Bft) W-SW 247 9,9 C 28,6 C 4,0 km/h (1 Bft)
14.07.2013 16:40 24,8 C 37 % 1024,8 hPa 0,0 l/m 4,3 km/h (1 Bft) W-SW 247 9,1 C 28,4 C 8,7 km/h (2 Bft)
14.07.2013 16:45 24,3 C 38 % 1024,8 hPa 0,0 l/m 4,0 km/h (1 Bft) SO 135 9,1 C 28,7 C 3,7 km/h (1 Bft)
14.07.2013 16:50 23,7 C 39 % 1024,8 hPa 0,0 l/m 3,7 km/h (1 Bft) NO 45 8,9 C 28,6 C 2,6 km/h (1 Bft)
14.07.2013 16:55 23,3 C 39 % 1024,8 hPa 0,0 l/m 3,7 km/h (1 Bft) O-SO 112 8,6 C 28,6 C 4,5 km/h (1 Bft)
14.07.2013 17:00 23,0 C 41 % 1024,8 hPa 0,0 l/m 4,2 km/h (1 Bft) N-NW 337 9,0 C 28,5 C 6,3 km/h (2 Bft)
14.07.2013 17:05 23,1 C 42 % 1024,8 hPa 0,0 l/m 5,3 km/h (1 Bft) W-SW 247 9,5 C 28,1 C 6,9 km/h (2 Bft)
14.07.2013 17:10 23,1 C 43 % 1024,8 hPa 0,0 l/m 5,3 km/h (1 Bft) W 270 9,8 C 27,8 C 7,4 km/h (2 Bft)
14.07.2013 17:15 23,1 C 44 % 1024,8 hPa 0,0 l/m 4,5 km/h (1 Bft) NW 315 10,2 C 27,9 C 5,1 km/h (1 Bft)
14.07.2013 17:20 23,1 C 44 % 1024,7 hPa 0,0 l/m 4,2 km/h (1 Bft) N 360 10,2 C 28,1 C 5,8 km/h (2 Bft)
14.07.2013 17:25 23,2 C 46 % 1024,7 hPa 0,0 l/m 3,5 km/h (1 Bft) S-SW 202 10,9 C 28,4 C 3,2 km/h (1 Bft)
14.07.2013 17:30 23,0 C 42 % 1024,7 hPa 0,0 l/m 3,5 km/h (1 Bft) O-NO 67 9,4 C 28,4 C 3,9 km/h (1 Bft)
14.07.2013 17:35 22,7 C 43 % 1024,7 hPa 0,0 l/m 4,0 km/h (1 Bft) N-NW 337 9,5 C 28,3 C 1,6 km/h (1 Bft)
14.07.2013 17:40 22,8 C 45 % 1024,6 hPa 0,0 l/m 3,4 km/h (1 Bft) N-NW 337 10,2 C 28,6 C 6,6 km/h (2 Bft)
14.07.2013 17:45 22,6 C 45 % 1024,6 hPa 0,0 l/m 2,9 km/h (1 Bft) W 270 10,1 C 28,4 C 3,4 km/h (1 Bft)
14.07.2013 17:50 22,7 C 46 % 1024,6 hPa 0,0 l/m 4,0 km/h (1 Bft) NW 315 10,5 C 28,3 C 3,1 km/h (1 Bft)
14.07.2013 17:55 22,4 C 44 % 1024,6 hPa 0,0 l/m 3,5 km/h (1 Bft) N 360 9,5 C 28,2 C 4,0 km/h (1 Bft)
14.07.2013 18:00 22,5 C 46 % 1024,6 hPa 0,0 l/m 3,2 km/h (1 Bft) W-NW 292 10,3 C 28,3 C 3,9 km/h (1 Bft)
14.07.2013 18:05 22,4 C 46 % 1024,6 hPa 0,0 l/m 2,6 km/h (1 Bft) N 360 10,2 C 28,7 C 3,7 km/h (1 Bft)
14.07.2013 18:10 22,4 C 45 % 1024,6 hPa 0,0 l/m 2,4 km/h (1 Bft) O-SO 112 9,9 C 28,8 C 1,6 km/h (1 Bft)
14.07.2013 18:15 22,8 C 47 % 1024,6 hPa 0,0 l/m 3,2 km/h (1 Bft) NW 315 10,9 C 28,4 C 5,5 km/h (1 Bft)
14.07.2013 18:20 22,9 C 46 % 1024,4 hPa 0,0 l/m 3,5 km/h (1 Bft) N-NW 337 10,7 C 28,2 C 2,3 km/h (1 Bft)
14.07.2013 18:25 22,9 C 44 % 1024,4 hPa 0,0 l/m 2,7 km/h (1 Bft) W-NW 292 10,0 C 28,5 C 5,5 km/h (1 Bft)
14.07.2013 18:30 22,8 C 44 % 1024,4 hPa 0,0 l/m 2,6 km/h (1 Bft) W-NW 292 9,9 C 28,1 C 2,6 km/h (1 Bft)
14.07.2013 18:35 22,9 C 45 % 1024,4 hPa 0,0 l/m 3,5 km/h (1 Bft) S 180 10,3 C 27,8 C 4,3 km/h (1 Bft)
14.07.2013 18:40 22,8 C 44 % 1023,9 hPa 0,0 l/m 3,5 km/h (1 Bft) W-SW 247 9,9 C 27,5 C 3,7 km/h (1 Bft)
14.07.2013 18:45 22,7 C 46 % 1023,9 hPa 0,0 l/m 4,0 km/h (1 Bft) W-NW 292 10,5 C 27,2 C 4,5 km/h (1 Bft)
14.07.2013 18:50 22,7 C 45 % 1023,9 hPa 0,0 l/m 3,7 km/h (1 Bft) W-SW 247 10,1 C 27,2 C 3,1 km/h (1 Bft)
14.07.2013 18:55 22,3 C 45 % 1023,9 hPa 0,0 l/m 3,2 km/h (1 Bft) W 270 9,8 C 27,2 C 1,8 km/h (1 Bft)
14.07.2013 19:00 22,3 C 46 % 1023,5 hPa 0,0 l/m 2,4 km/h (1 Bft) N-NW 337 10,1 C 27,4 C 3,5 km/h (1 Bft)
14.07.2013 19:05 22,2 C 45 % 1023,5 hPa 0,0 l/m 2,3 km/h (1 Bft) W-SW 247 9,7 C 27,4 C 2,9 km/h (1 Bft)
14.07.2013 19:10 22,2 C 45 % 1023,5 hPa 0,0 l/m 3,2 km/h (1 Bft) W-SW 247 9,7 C 27,2 C 4,2 km/h (1 Bft)
14.07.2013 19:15 22,0 C 45 % 1023,5 hPa 0,0 l/m 4,2 km/h (1 Bft) W-SW 247 9,5 C 26,6 C 3,7 km/h (1 Bft)
14.07.2013 19:20 22,0 C 45 % 1023,7 hPa 0,0 l/m 3,1 km/h (1 Bft) N 360 9,5 C 26,7 C 1,6 km/h (1 Bft)
14.07.2013 19:25 21,5 C 49 % 1023,7 hPa 0,0 l/m 0,8 km/h (0 Bft) W 270 10,3 C 27,3 C 2,1 km/h (1 Bft)
14.07.2013 19:30 21,7 C 47 % 1023,7 hPa 0,0 l/m 1,0 km/h (0 Bft) S-SW 202 9,9 C 27,4 C 5,3 km/h (1 Bft)
14.07.2013 19:35 21,5 C 49 % 1023,7 hPa 0,0 l/m 2,1 km/h (1 Bft) W-NW 292 10,3 C 27,0 C 5,0 km/h (1 Bft)
14.07.2013 19:40 21,5 C 47 % 1023,7 hPa 0,0 l/m 2,3 km/h (1 Bft) W 270 9,7 C 26,6 C 3,1 km/h (1 Bft)
14.07.2013 19:45 21,5 C 48 % 1023,7 hPa 0,0 l/m 2,4 km/h (1 Bft) W-NW 292 10,0 C 26,0 C 3,1 km/h (1 Bft)
14.07.2013 19:50 21,3 C 48 % 1023,7 hPa 0,0 l/m 2,4 km/h (1 Bft) W-SW 247 9,8 C 25,6 C 2,3 km/h (1 Bft)
14.07.2013 19:55 21,2 C 48 % 1023,7 hPa 0,0 l/m 1,9 km/h (1 Bft) W-SW 247 9,7 C 25,3 C 2,6 km/h (1 Bft)
14.07.2013 20:00 21,1 C 49 % 1023,7 hPa 0,0 l/m 1,9 km/h (1 Bft) N-NO 22 10,0 C 24,9 C 2,3 km/h (1 Bft)
14.07.2013 20:05 20,4 C 51 % 1023,7 hPa 0,0 l/m 1,1 km/h (1 Bft) NO 45 9,9 C 24,7 C 1,8 km/h (1 Bft)
14.07.2013 20:10 20,3 C 50 % 1023,7 hPa 0,0 l/m 0,6 km/h (0 Bft) NO 45 9,5 C 24,4 C 2,3 km/h (1 Bft)
14.07.2013 20:15 20,0 C 51 % 1023,7 hPa 0,0 l/m 1,3 km/h (1 Bft) N 360 9,6 C 23,7 C 2,4 km/h (1 Bft)
14.07.2013 20:20 19,9 C 50 % 1024,0 hPa 0,0 l/m 1,3 km/h (1 Bft) NO 45 9,2 C 23,3 C 0,0 km/h (0 Bft)
14.07.2013 20:25 19,6 C 51 % 1024,0 hPa 0,0 l/m 1,3 km/h (1 Bft) S-SW 202 9,2 C 22,5 C 3,4 km/h (1 Bft)
14.07.2013 20:30 19,3 C 53 % 1024,0 hPa 0,0 l/m 2,1 km/h (1 Bft) NO 45 9,5 C 22,0 C 3,4 km/h (1 Bft)
14.07.2013 20:35 18,9 C 54 % 1024,0 hPa 0,0 l/m 3,4 km/h (1 Bft) O-NO 67 9,4 C 20,7 C 3,9 km/h (1 Bft)
14.07.2013 20:40 18,7 C 55 % 1023,9 hPa 0,0 l/m 3,5 km/h (1 Bft) O 90 9,5 C 20,0 C 4,8 km/h (1 Bft)
14.07.2013 20:45 18,3 C 56 % 1023,9 hPa 0,0 l/m 4,2 km/h (1 Bft) O 90 9,4 C 19,0 C 5,0 km/h (1 Bft)
14.07.2013 20:50 18,1 C 56 % 1023,9 hPa 0,0 l/m 4,5 km/h (1 Bft) NO 45 9,2 C 18,7 C 5,1 km/h (1 Bft)
14.07.2013 20:55 17,2 C 59 % 1023,9 hPa 0,0 l/m 3,5 km/h (1 Bft) NO 45 9,1 C 17,9 C 4,5 km/h (1 Bft)
14.07.2013 21:00 17,3 C 59 % 1023,9 hPa 0,0 l/m 2,9 km/h (1 Bft) O 90 9,2 C 17,5 C 1,6 km/h (1 Bft)
14.07.2013 21:05 16,7 C 60 % 1023,9 hPa 0,0 l/m 2,4 km/h (1 Bft) NO 45 8,9 C 16,7 C 5,1 km/h (1 Bft)
14.07.2013 21:10 16,5 C 63 % 1023,9 hPa 0,0 l/m 3,2 km/h (1 Bft) O-NO 67 9,4 C 16,4 C 6,1 km/h (2 Bft)
14.07.2013 21:15 16,0 C 65 % 1023,9 hPa 0,0 l/m 4,0 km/h (1 Bft) O-NO 67 9,4 C 16,1 C 2,1 km/h (1 Bft)
14.07.2013 21:20 15,7 C 66 % 1023,9 hPa 0,0 l/m 3,4 km/h (1 Bft) O 90 9,4 C 15,7 C 5,3 km/h (1 Bft)
14.07.2013 21:25 15,6 C 66 % 1023,9 hPa 0,0 l/m 3,2 km/h (1 Bft) O-SO 112 9,3 C 15,5 C 0,0 km/h (0 Bft)
14.07.2013 21:30 15,2 C 68 % 1023,9 hPa 0,0 l/m 3,4 km/h (1 Bft) NO 45 9,3 C 15,2 C 5,1 km/h (1 Bft)
14.07.2013 21:35 14,7 C 70 % 1023,9 hPa 0,0 l/m 2,6 km/h (1 Bft) O 90 9,3 C 15,0 C 3,5 km/h (1 Bft)
14.07.2013 21:40 15,2 C 69 % 1024,2 hPa 0,0 l/m 3,5 km/h (1 Bft) O-SO 112 9,6 C 14,8 C 4,3 km/h (1 Bft)
14.07.2013 21:45 15,0 C 69 % 1024,2 hPa 0,0 l/m 2,9 km/h (1 Bft) O 90 9,4 C 14,6 C 4,0 km/h (1 Bft)
14.07.2013 21:50 15,0 C 69 % 1024,2 hPa 0,0 l/m 3,1 km/h (1 Bft) O 90 9,4 C 14,5 C 4,0 km/h (1 Bft)
14.07.2013 21:55 14,9 C 69 % 1024,2 hPa 0,0 l/m 3,9 km/h (1 Bft) O 90 9,3 C 14,4 C 4,3 km/h (1 Bft)
14.07.2013 22:00 14,9 C 69 % 1024,3 hPa 0,0 l/m 4,0 km/h (1 Bft) O-NO 67 9,3 C 14,5 C 4,5 km/h (1 Bft)
14.07.2013 22:05 14,6 C 70 % 1024,3 hPa 0,0 l/m 4,0 km/h (1 Bft) O-NO 67 9,2 C 14,4 C 4,3 km/h (1 Bft)
14.07.2013 22:10 14,6 C 70 % 1024,3 hPa 0,0 l/m 3,9 km/h (1 Bft) O 90 9,2 C 14,3 C 4,2 km/h (1 Bft)
14.07.2013 22:15 14,5 C 71 % 1024,3 hPa 0,0 l/m 3,7 km/h (1 Bft) O 90 9,3 C 14,2 C 3,5 km/h (1 Bft)
14.07.2013 22:20 14,2 C 72 % 1024,4 hPa 0,0 l/m 3,2 km/h (1 Bft) O-SO 112 9,2 C 14,1 C 2,7 km/h (1 Bft)
14.07.2013 22:25 14,0 C 73 % 1024,4 hPa 0,0 l/m 2,6 km/h (1 Bft) O 90 9,2 C 14,0 C 2,4 km/h (1 Bft)
14.07.2013 22:30 14,0 C 73 % 1024,4 hPa 0,0 l/m 2,3 km/h (1 Bft) O-SO 112 9,2 C 13,9 C 2,3 km/h (1 Bft)
14.07.2013 22:35 13,9 C 73 % 1024,4 hPa 0,0 l/m 1,4 km/h (1 Bft) O 90 9,1 C 13,8 C 0,0 km/h (0 Bft)
14.07.2013 22:40 13,8 C 73 % 1024,4 hPa 0,0 l/m 1,0 km/h (0 Bft) O 90 9,0 C 13,7 C 0,0 km/h (0 Bft)
14.07.2013 22:45 13,7 C 72 % 1024,4 hPa 0,0 l/m 0,5 km/h (0 Bft) O-SO 112 8,7 C 13,5 C 0,0 km/h (0 Bft)
14.07.2013 22:50 13,6 C 72 % 1024,4 hPa 0,0 l/m 0,2 km/h (0 Bft) O 90 8,6 C 13,4 C 0,0 km/h (0 Bft)
14.07.2013 22:55 13,5 C 72 % 1024,4 hPa 0,0 l/m 0,0 km/h (0 Bft) O 90 8,6 C 13,1 C 0,0 km/h (0 Bft)
14.07.2013 23:00 13,4 C 72 % 1024,4 hPa 0,0 l/m 0,0 km/h (0 Bft) O 90 8,5 C 12,9 C 0,0 km/h (0 Bft)
14.07.2013 23:05 13,4 C 72 % 1024,4 hPa 0,0 l/m 0,0 km/h (0 Bft) O-SO 112 8,5 C 12,8 C 0,0 km/h (0 Bft)
14.07.2013 23:10 13,4 C 72 % 1024,4 hPa 0,0 l/m 0,0 km/h (0 Bft) O-SO 112 8,5 C 12,7 C 0,0 km/h (0 Bft)
14.07.2013 23:15 13,4 C 73 % 1024,4 hPa 0,0 l/m 0,2 km/h (0 Bft) O 90 8,7 C 12,7 C 1,8 km/h (1 Bft)
14.07.2013 23:20 13,4 C 73 % 1024,4 hPa 0,0 l/m 0,2 km/h (0 Bft) O-SO 112 8,7 C 12,7 C 0,0 km/h (0 Bft)
14.07.2013 23:25 13,5 C 72 % 1024,4 hPa 0,0 l/m 0,3 km/h (0 Bft) O 90 8,6 C 12,9 C 0,0 km/h (0 Bft)
14.07.2013 23:30 13,5 C 72 % 1024,4 hPa 0,0 l/m 0,3 km/h (0 Bft) O 90 8,6 C 12,9 C 1,9 km/h (1 Bft)
14.07.2013 23:35 13,5 C 73 % 1024,4 hPa 0,0 l/m 0,3 km/h (0 Bft) O-SO 112 8,8 C 13,0 C 1,6 km/h (1 Bft)
14.07.2013 23:40 13,6 C 73 % 1024,4 hPa 0,0 l/m 0,3 km/h (0 Bft) O 90 8,9 C 13,0 C 0,0 km/h (0 Bft)
14.07.2013 23:45 13,6 C 73 % 1024,4 hPa 0,0 l/m 0,5 km/h (0 Bft) O 90 8,9 C 13,2 C 1,6 km/h (1 Bft)
14.07.2013 23:50 13,6 C 73 % 1024,4 hPa 0,0 l/m 0,3 km/h (0 Bft) O-SO 112 8,9 C 13,2 C 0,0 km/h (0 Bft)
14.07.2013 23:55 13,5 C 73 % 1024,4 hPa 0,0 l/m 0,2 km/h (0 Bft) W-SW 247 8,8 C 13,2 C 0,0 km/h (0 Bft)
_ Min-Zeit 05:45 14:15 05:15 - 23:10 - - 05:10 05:50 23:55
Minimum _ 7,9 C 32 % 1023,4 hPa - 0,0 km/h (0 Bft) - - 6,0 C 7,4 C 0,0 km/h (0 Bft)
_ Max-Zeit 15:40 06:15 11:35 23:55 14:10 - - 08:30 15:40 15:15
Maximum _ 26,6 C 88 % 1025,5 hPa 0,0 l/m 6,8 km/h
W-NW (2 Bft)
- - 13,4 C 29,5 C 14,5 km/h
W-SW (3 Bft)
Durchschnitt _ 18,4 C 58 % 1024,4 hPa #0,0 l/m 1,8 km/h (1 Bft) W-SW - 8,8 C 19,6 C 2,4 km/h (1 Bft)